Location: Bieg
(49.3499°N, 10.3835°E)
Time: 11:21:03
(UTC+00:00)

Lacrosse 5 rocket - Pass Details

Date: 23 May 2024
Orbit: 445 x 572 km, 57.0° (Epoch: 20 June)

Event Time Altitude Azimuth Distance (km) Brightness Sun altitude
Rises 01:21:06 0° 302° (WNW) 2,733 4.9 -14.6°
Reaches altitude 10° 01:23:25 10° 298° (WNW) 1,817 3.9 -14.4°
Maximum altitude 01:27:24 50° 223° (SW) 681 1.4 -14.1°
Drops below altitude 10° 01:31:12 10° 147° (SSE) 1,732 3.6 -13.8°
Sets 01:33:22 0° 142° (SE) 2,590 4.6 -13.6°
